Regional Weather Roundup
Issued by NWS

Home | Current Version | Previous Version | Text Only | Print | Product List | Glossary Off
Versions: 1 2 3 4 5 6 7 8 9 10 11 12 13 14 15 16 17 18 19 20 21 22 23 24 25 26 27 28 29 30 31 32 33 34 35 36 37 38 39 40 41 42 43 44 45 46 47 48 49 50

000
ASUS45 KABQ 301801
RWRNM
NEW MEXICO REGIONAL WEATHER ROUNDUP
NATIONAL WEATHER SERVICE ALBUQUERQUE NM
1200 PM MDT SAT APR 30 2016

NOTE: "FAIR" MEANS FEW OR NO CLOUDS BELOW 12,000 FEET AGL WITH NO
       SIGNIFICANT WEATHER OR OBSTRUCTIONS TO VISION.

      THIS PRODUCT IS RELEASED AS TWO VERSIONS.  ONE VERSION NEAR
      THE TOP OF THE HOUR CONTAINING PRELIMINARY DATA FROM ALBUQUERQUE
      AND OTHER STATIONS.  A FINAL VERSION WITH ADDITIONAL DATA IS
      ISSUED ABOUT 10 MINUTES AFTER THE HOUR.

NMZ501-503-504-510>518-301900-
NORTHWEST PLATEAU/NORTHCENTRAL MOUNTAINS

CITY           SKY/WX    TMP DP  RH WIND       PRES   REMARKS
FARMINGTON     PTSUNNY   54  29  38 CALM      29.85F
6HR MIN TEMP:  31; 6HR MAX TEMP:  55;

SANTA FE       CLOUDY    52  37  56 VRB3      29.88F
6HR MIN TEMP:  35; 6HR MAX TEMP:  54; 6HR PCP:  0.01;

TAOS           CLOUDY    45  28  53 SW12G18   29.90S

$$
NMZ402-403-502-505>509-301900-
WESTCENTRAL MOUNTAINS/SOUTHWEST MOUNTAINS

CITY           SKY/WX    TMP DP  RH WIND       PRES   REMARKS
GALLUP         PTSUNNY   51  38  60 VRB3      29.89S
6HR MIN TEMP:  33; 6HR MAX TEMP:  52; 6HR PCP:  0.02;

GRANTS         FAIR      55  31  41 NW10G18   29.90F
SILVER CITY      N/A     63  27  25 SW16G25   29.90F

$$
NMZ407-409-411-412-301900-
SOUTHERN DESERTS

CITY           SKY/WX    TMP DP  RH WIND       PRES   REMARKS
LORDSBURG      FAIR      68  27  21 W8G20     29.85F
DEMING         FAIR      68  29  23 SW8       29.85F
6HR MIN TEMP:  38; 6HR MAX TEMP:  68;

HOLLOMAN AFB   FAIR      67  26  21 W12       29.84F
ALAMOGORDO     FAIR      66  25  20 W12G17    29.86F
T OR C         FAIR      64  26  23 S9        29.85F
6HR MIN TEMP:  46; 6HR MAX TEMP:  64;


$$
NMZ519>523-301900-
CENTRAL VALLEYS/CENTRAL HIGHLANDS

CITY           SKY/WX    TMP DP  RH WIND       PRES   REMARKS
ALBUQUERQUE    PTSUNNY   60  32  34 N8G18     29.86F
6HR MIN TEMP:  41; 6HR MAX TEMP:  60;

DOUBLE EAGLE   RAIN      55  34  44 N12       29.88F
CLINES CORNERS PTSUNNY   53  30  41 NW16G25   29.88R
6HR MIN TEMP:  34; 6HR MAX TEMP:  55;

BELEN          CLOUDY    59  30  33 SW3       29.87F
6HR MIN TEMP:  44; 6HR MAX TEMP:  59;

SOCORRO        NOT AVBL

$$
NMZ524>526-539-540-301900-
SOUTHCENTRAL MOUNTAINS

CITY           SKY/WX    TMP DP  RH WIND       PRES   REMARKS
RUIDOSO        NOT AVBL

$$
NMZ527>531-301900-
NORTHEAST HIGHLANDS/NORTHEAST PLAINS

CITY           SKY/WX    TMP DP  RH WIND       PRES   REMARKS
LAS VEGAS      CLOUDY    51  27  39 SW7       29.87S
6HR MIN TEMP:  27; 6HR MAX TEMP:  52;

RATON          FAIR      47  30  51 E7        29.88S
6HR MIN TEMP:  28; 6HR MAX TEMP:  48;

CLAYTON        CLOUDY    50  33  52 N13       29.90R
6HR MIN TEMP:  37; 6HR MAX TEMP:  51;


$$
NMZ532>537-301900-
EASTCENTRAL PLAINS

CITY           SKY/WX    TMP DP  RH WIND       PRES   REMARKS
TUCUMCARI      PTSUNNY   56  39  53 NE8       29.89S
6HR MIN TEMP:  34; 6HR MAX TEMP:  56;

CANNON AFB     NOT AVBL
CLOVIS AIRPORT FAIR      55  37  50 S3        29.91R

$$
NMZ028-029-538-301900-
SOUTHEAST PLAINS

CITY           SKY/WX    TMP DP  RH WIND       PRES   REMARKS
ROSWELL        FAIR      72  31  22 SW13      29.81F
6HR MIN TEMP:  41; 6HR MAX TEMP:  72;

ARTESIA        FAIR      70  30  23 VRB3      29.82F
CARLSBAD       FAIR      75  25  15 W14G22    29.80F
6HR MIN TEMP:  45; 6HR MAX TEMP:  75;

HOBBS          MOSUNNY   66  37  34 VRB5      29.87F


$$



USA.gov is the U.S. government's official web portal to all federal, state and local government web resources and services.